GSAT0216 (GALILEO 20)

Last updated on Mon Jun 30 2025 00:02:32 GMT+0000 (Coordinated Universal Time)

1 43056U 17079B 25177.25150952 .00000037 00000+0 00000+0 0 9991 2 43056 55.1891 231.3001 0004350 268.6788 91.3679 1.70474653 46930
UTC large
Height (km)
Speed (km/s)
/
Latitude / Longitude
Inclination (degrees)
Orbital Period (minutes)
Azimuth
Elevation
Range (km)
Doppler Factor

Next 0 passes for location: London (51.5072 / 0.1276)

Sorry there are no passes over London.